Time,TemperatureF,DewpointF,PressureIn,WindDirection,WindDirectionDegrees,WindSpeedMPH,WindSpeedGustMPH,Humidity,HourlyPrecipIn,Conditions,Clouds,dailyrainin,SoftwareType,DateUTC
2013-11-01 00:00:00,52.6,0.0,30.27,SSE,158,0.0,0.2,0,0.00,,,0.00,WUHU216HW,2013-11-01 07:00:00,
2013-11-01 00:05:00,52.6,0.0,30.27,SSE,158,0.0,0.0,0,0.00,,,0.00,WUHU216HW,2013-11-01 07:05:00,
2013-11-01 00:10:00,52.6,0.0,30.27,SSE,158,0.0,0.0,0,0.00,,,0.00,WUHU216HW,2013-11-01 07:10:00,
2013-11-01 00:15:00,52.6,0.0,30.27,SSW,203,0.0,0.0,0,0.00,,,0.00,WUHU216HW,2013-11-01 07:15:00,
2013-11-01 00:20:00,52.6,0.0,30.27,SSW,203,0.0,0.0,0,0.00,,,0.00,WUHU216HW,2013-11-01 07:20:00,
2013-11-01 00:25:00,52.6,0.0,30.28,SSW,203,0.0,0.0,0,0.00,,,0.00,WUHU216HW,2013-11-01 07:25:00,
2013-11-01 00:30:00,52.6,0.0,30.28,SSW,203,0.0,0.0,0,0.00,,,0.00,WUHU216HW,2013-11-01 07:30:00,
2013-11-01 00:35:00,52.6,0.0,30.28,SSW,203,0.0,0.0,0,0.00,,,0.00,WUHU216HW,2013-11-01 07:35:00,
2013-11-01 00:40:00,52.6,0.0,30.28,West,270,0.0,0.0,0,0.00,,,0.00,WUHU216HW,2013-11-01 07:40:00,
2013-11-01 00:45:00,52.6,0.0,30.28,West,270,0.0,0.0,0,0.00,,,0.00,WUHU216HW,2013-11-01 07:45:00,
2013-11-01 00:50:00,52.6,0.0,30.28,West,270,0.0,0.0,0,0.00,,,0.00,WUHU216HW,2013-11-01 07:50:00,
2013-11-01 00:55:00,52.6,0.0,30.28,SSE,158,0.0,0.0,0,0.00,,,0.00,WUHU216HW,2013-11-01 07:55:00,
2013-11-01 01:00:00,52.6,0.0,30.29,SSE,158,0.0,0.0,0,0.00,,,0.00,WUHU216HW,2013-11-01 08:00:00,
2013-11-01 01:05:00,52.6,0.0,30.29,SW,225,2.2,2.7,0,0.00,,,0.00,WUHU216HW,2013-11-01 08:05:00,
2013-11-01 01:10:00,52.6,0.0,30.29,SW,225,0.0,2.7,0,0.00,,,0.00,WUHU216HW,2013-11-01 08:10:00,
2013-11-01 01:15:00,52.4,0.0,30.29,WSW,248,0.4,2.5,0,0.00,,,0.00,WUHU216HW,2013-11-01 08:15:00,
2013-11-01 01:20:00,52.4,0.0,30.29,NNW,338,0.2,2.5,0,0.00,,,0.00,WUHU216HW,2013-11-01 08:20:00,
2013-11-01 01:25:00,52.4,0.0,30.29,SSW,203,1.6,2.0,0,0.00,,,0.00,WUHU216HW,2013-11-01 08:25:00,
2013-11-01 01:30:00,52.4,0.0,30.29,SSW,203,0.0,2.2,0,0.00,,,0.00,WUHU216HW,2013-11-01 08:30:00,
2013-11-01 01:35:00,52.4,0.0,30.29,SW,225,0.0,2.2,0,0.00,,,0.00,WUHU216HW,2013-11-01 08:35:00,
2013-11-01 01:40:00,52.4,0.0,30.29,SW,225,0.0,1.1,0,0.00,,,0.00,WUHU216HW,2013-11-01 08:40:00,
2013-11-01 01:45:00,52.2,0.0,30.29,SSE,158,0.2,0.4,0,0.00,,,0.00,WUHU216HW,2013-11-01 08:45:00,
2013-11-01 01:50:00,52.4,0.0,30.29,SW,225,0.0,0.4,0,0.00,,,0.00,WUHU216HW,2013-11-01 08:50:00,
2013-11-01 01:55:00,52.2,0.0,30.29,SW,225,0.0,0.4,0,0.00,,,0.00,WUHU216HW,2013-11-01 08:55:00,
2013-11-01 02:00:00,52.2,0.0,30.29,SW,225,0.0,0.4,0,0.00,,,0.00,WUHU216HW,2013-11-01 09:00:00,
2013-11-01 02:05:00,52.2,0.0,30.29,SW,225,0.7,1.1,0,0.00,,,0.00,WUHU216HW,2013-11-01 09:05:00,
2013-11-01 02:10:00,52.2,0.0,30.29,SE,135,0.2,1.1,0,0.00,,,0.00,WUHU216HW,2013-11-01 09:10:00,
2013-11-01 02:15:00,52.2,0.0,30.29,SSW,203,0.2,1.1,0,0.00,,,0.00,WUHU216HW,2013-11-01 09:15:00,
2013-11-01 02:20:00,52.2,0.0,30.29,SW,225,0.4,1.6,0,0.00,,,0.00,WUHU216HW,2013-11-01 09:20:00,
2013-11-01 02:25:00,52.2,0.0,30.29,SW,225,0.0,1.6,0,0.00,,,0.00,WUHU216HW,2013-11-01 09:25:00,
2013-11-01 02:30:00,52.2,0.0,30.29,SSE,158,0.0,0.4,0,0.00,,,0.00,WUHU216HW,2013-11-01 09:30:00,
2013-11-01 02:35:00,52.2,0.0,30.29,SSE,158,0.0,0.4,0,0.00,,,0.00,WUHU216HW,2013-11-01 09:35:00,
2013-11-01 02:40:00,52.2,0.0,30.28,SSE,158,0.0,0.0,0,0.00,,,0.00,WUHU216HW,2013-11-01 09:40:00,
2013-11-01 02:45:00,52.2,0.0,30.29,SSE,158,0.0,0.0,0,0.00,,,0.00,WUHU216HW,2013-11-01 09:45:00,
2013-11-01 02:50:00,52.2,0.0,30.29,SW,225,1.1,1.1,0,0.00,,,0.00,WUHU216HW,2013-11-01 09:50:00,
2013-11-01 02:55:00,52.2,0.0,30.29,WSW,248,0.4,2.0,0,0.00,,,0.00,WUHU216HW,2013-11-01 09:55:00,
2013-11-01 03:00:00,52.2,0.0,30.28,SW,225,0.7,2.0,0,0.00,,,0.00,WUHU216HW,2013-11-01 10:00:00,
2013-11-01 03:05:00,52.2,0.0,30.29,SW,225,0.4,1.8,0,0.00,,,0.00,WUHU216HW,2013-11-01 10:05:00,
2013-11-01 03:10:00,52.2,0.0,30.28,SSW,203,0.4,2.5,0,0.00,,,0.00,WUHU216HW,2013-11-01 10:10:00,
2013-11-01 03:15:00,52.2,0.0,30.28,SW,225,0.4,2.5,0,0.00,,,0.00,WUHU216HW,2013-11-01 10:15:00,
2013-11-01 03:20:00,52.0,0.0,30.29,SW,225,0.0,1.1,0,0.00,,,0.00,WUHU216HW,2013-11-01 10:20:00,
2013-11-01 03:25:00,52.0,0.0,30.29,SW,225,0.0,0.4,0,0.00,,,0.00,WUHU216HW,2013-11-01 10:25:00,
2013-11-01 03:30:00,52.0,0.0,30.28,SW,225,0.0,0.0,0,0.00,,,0.00,WUHU216HW,2013-11-01 10:30:00,
2013-11-01 03:35:00,52.0,0.0,30.28,SW,225,0.0,0.0,0,0.00,,,0.00,WUHU216HW,2013-11-01 10:35:00,
2013-11-01 03:40:00,52.0,0.0,30.29,SW,225,0.0,0.0,0,0.00,,,0.00,WUHU216HW,2013-11-01 10:40:00,
2013-11-01 03:45:00,52.0,0.0,30.28,WSW,248,0.0,1.1,0,0.00,,,0.00,WUHU216HW,2013-11-01 10:45:00,
2013-11-01 03:50:00,52.0,0.0,30.28,SW,225,0.0,1.1,0,0.00,,,0.00,WUHU216HW,2013-11-01 10:50:00,
2013-11-01 03:55:00,51.8,0.0,30.28,SW,225,0.0,1.1,0,0.00,,,0.00,WUHU216HW,2013-11-01 10:55:00,
2013-11-01 04:00:00,51.8,0.0,30.28,SW,225,0.0,0.2,0,0.00,,,0.00,WUHU216HW,2013-11-01 11:00:00,
2013-11-01 04:05:00,51.8,0.0,30.28,SW,225,0.0,0.4,0,0.00,,,0.00,WUHU216HW,2013-11-01 11:05:00,
2013-11-01 04:10:00,51.8,0.0,30.28,SW,225,0.0,0.4,0,0.00,,,0.00,WUHU216HW,2013-11-01 11:10:00,
2013-11-01 04:15:00,51.8,0.0,30.28,SW,225,1.1,1.1,0,0.00,,,0.00,WUHU216HW,2013-11-01 11:15:00,
2013-11-01 04:20:00,51.8,0.0,30.29,SW,225,0.0,1.1,0,0.00,,,0.00,WUHU216HW,2013-11-01 11:20:00,
2013-11-01 04:25:00,51.8,0.0,30.29,SW,225,0.0,1.1,0,0.00,,,0.00,WUHU216HW,2013-11-01 11:25:00,
2013-11-01 04:30:00,51.8,0.0,30.29,SW,225,0.0,0.2,0,0.00,,,0.00,WUHU216HW,2013-11-01 11:30:00,
2013-11-01 04:35:00,51.8,0.0,30.28,SW,225,0.0,0.0,0,0.00,,,0.00,WUHU216HW,2013-11-01 11:35:00,
2013-11-01 04:40:00,51.7,0.0,30.28,SW,225,0.0,0.2,0,0.00,,,0.00,WUHU216HW,2013-11-01 11:40:00,
2013-11-01 04:45:00,51.7,0.0,30.28,NW,315,0.0,0.2,0,0.00,,,0.00,WUHU216HW,2013-11-01 11:45:00,
2013-11-01 04:50:00,51.7,0.0,30.28,WNW,293,0.0,0.4,0,0.00,,,0.00,WUHU216HW,2013-11-01 11:50:00,
2013-11-01 04:55:00,51.7,0.0,30.28,South,180,0.0,0.4,0,0.00,,,0.00,WUHU216HW,2013-11-01 11:55:00,
2013-11-01 05:00:00,51.7,0.0,30.28,SW,225,0.4,0.4,0,0.00,,,0.00,WUHU216HW,2013-11-01 12:00:00,
2013-11-01 05:05:00,51.7,0.0,30.28,WSW,248,0.0,1.1,0,0.00,,,0.00,WUHU216HW,2013-11-01 12:05:00,
2013-11-01 05:10:00,51.7,0.0,30.28,WSW,248,0.0,1.1,0,0.00,,,0.00,WUHU216HW,2013-11-01 12:10:00,
2013-11-01 05:15:00,51.5,0.0,30.28,WSW,248,0.0,0.0,0,0.00,,,0.00,WUHU216HW,2013-11-01 12:15:00,
2013-11-01 05:20:00,51.5,0.0,30.28,WSW,248,0.2,0.4,0,0.00,,,0.00,WUHU216HW,2013-11-01 12:20:00,
2013-11-01 05:25:00,51.7,0.0,30.28,SW,225,0.4,0.9,0,0.00,,,0.00,WUHU216HW,2013-11-01 12:25:00,
2013-11-01 05:30:00,51.5,0.0,30.28,SW,225,0.0,0.9,0,0.00,,,0.00,WUHU216HW,2013-11-01 12:30:00,
2013-11-01 05:35:00,51.5,0.0,30.28,SW,225,0.0,0.4,0,0.00,,,0.00,WUHU216HW,2013-11-01 12:35:00,
2013-11-01 05:40:00,51.5,0.0,30.28,SSW,203,0.4,0.4,0,0.00,,,0.00,WUHU216HW,2013-11-01 12:40:00,
2013-11-01 05:45:00,51.7,0.0,30.27,SE,135,0.0,0.4,0,0.00,,,0.00,WUHU216HW,2013-11-01 12:45:00,
2013-11-01 05:50:00,51.5,0.0,30.27,WSW,248,0.0,0.7,0,0.00,,,0.00,WUHU216HW,2013-11-01 12:50:00,
2013-11-01 05:55:00,51.5,0.0,30.27,WSW,248,1.1,1.1,0,0.00,,,0.00,WUHU216HW,2013-11-01 12:55:00,
2013-11-01 06:00:00,51.5,0.0,30.27,SW,225,0.9,1.1,0,0.00,,,0.00,WUHU216HW,2013-11-01 13:00:00,
2013-11-01 06:05:00,51.5,0.0,30.28,SW,225,1.1,2.5,0,0.00,,,0.00,WUHU216HW,2013-11-01 13:05:00,
2013-11-01 06:10:00,51.5,0.0,30.27,SW,225,0.0,2.5,0,0.00,,,0.00,WUHU216HW,2013-11-01 13:10:00,
2013-11-01 06:15:00,51.5,0.0,30.27,SW,225,0.2,2.2,0,0.00,,,0.00,WUHU216HW,2013-11-01 13:15:00,
2013-11-01 06:20:00,51.5,0.0,30.27,SW,225,0.2,1.3,0,0.00,,,0.00,WUHU216HW,2013-11-01 13:20:00,
2013-11-01 06:25:00,51.5,0.0,30.27,SW,225,0.9,1.3,0,0.00,,,0.00,WUHU216HW,2013-11-01 13:25:00,
2013-11-01 06:30:00,51.5,0.0,30.27,SW,225,0.4,1.1,0,0.00,,,0.00,WUHU216HW,2013-11-01 13:30:00,
2013-11-01 06:35:00,51.5,0.0,30.27,SW,225,0.7,1.1,0,0.00,,,0.00,WUHU216HW,2013-11-01 13:35:00,
2013-11-01 06:40:00,51.5,0.0,30.27,SW,225,1.8,1.8,0,0.00,,,0.00,WUHU216HW,2013-11-01 13:40:00,
2013-11-01 06:45:00,51.5,0.0,30.27,SW,225,1.6,2.0,0,0.00,,,0.00,WUHU216HW,2013-11-01 13:45:00,
2013-11-01 06:50:00,51.5,0.0,30.27,SSE,158,0.0,2.0,0,0.00,,,0.00,WUHU216HW,2013-11-01 13:50:00,
2013-11-01 06:55:00,51.3,0.0,30.27,SSE,158,0.0,1.6,0,0.00,,,0.00,WUHU216HW,2013-11-01 13:55:00,
2013-11-01 07:00:00,51.3,0.0,30.27,WSW,248,1.1,1.6,0,0.00,,,0.00,WUHU216HW,2013-11-01 14:00:00,
2013-11-01 07:05:00,51.3,0.0,30.27,WSW,248,0.4,1.6,0,0.00,,,0.00,WUHU216HW,2013-11-01 14:05:00,
2013-11-01 07:10:00,51.3,0.0,30.27,NNW,338,0.4,1.3,0,0.00,,,0.00,WUHU216HW,2013-11-01 14:10:00,
2013-11-01 07:15:00,51.3,0.0,30.27,NNW,338,0.0,0.4,0,0.00,,,0.00,WUHU216HW,2013-11-01 14:15:00,
2013-11-01 07:20:00,51.1,0.0,30.27,NNW,338,0.0,0.4,0,0.00,,,0.00,WUHU216HW,2013-11-01 14:20:00,
2013-11-01 07:25:00,51.1,0.0,30.26,NNW,338,0.2,0.2,0,0.00,,,0.00,WUHU216HW,2013-11-01 14:25:00,
2013-11-01 07:30:00,51.1,0.0,30.26,NNW,338,0.0,0.4,0,0.00,,,0.00,WUHU216HW,2013-11-01 14:30:00,
2013-11-01 07:35:00,51.1,0.0,30.27,WSW,248,0.4,0.9,0,0.00,,,0.00,WUHU216HW,2013-11-01 14:35:00,
2013-11-01 07:40:00,50.9,0.0,30.27,WSW,248,0.0,1.8,0,0.00,,,0.00,WUHU216HW,2013-11-01 14:40:00,
2013-11-01 07:45:00,50.9,0.0,30.27,WSW,248,0.4,1.8,0,0.00,,,0.00,WUHU216HW,2013-11-01 14:45:00,
2013-11-01 07:50:00,50.9,0.0,30.27,WSW,248,0.0,0.7,0,0.00,,,0.00,WUHU216HW,2013-11-01 14:50:00,
2013-11-01 07:55:00,50.9,0.0,30.27,WSW,248,0.9,1.1,0,0.00,,,0.00,WUHU216HW,2013-11-01 14:55:00,
2013-11-01 08:00:00,50.9,0.0,30.27,WSW,248,1.1,1.1,0,0.00,,,0.00,WUHU216HW,2013-11-01 15:00:00,
2013-11-01 08:05:00,50.9,0.0,30.27,WSW,248,0.4,1.1,0,0.00,,,0.00,WUHU216HW,2013-11-01 15:05:00,
2013-11-01 08:10:00,50.8,0.0,30.27,WSW,248,1.1,1.1,0,0.00,,,0.00,WUHU216HW,2013-11-01 15:10:00,
2013-11-01 08:15:00,50.8,0.0,30.27,WSW,248,0.4,1.1,0,0.00,,,0.00,WUHU216HW,2013-11-01 15:15:00,
2013-11-01 08:20:00,50.8,0.0,30.27,WSW,248,0.0,1.1,0,0.00,,,0.00,WUHU216HW,2013-11-01 15:20:00,
2013-11-01 08:25:00,50.8,0.0,30.27,WSW,248,0.0,0.7,0,0.00,,,0.00,WUHU216HW,2013-11-01 15:25:00,
2013-11-01 08:30:00,50.8,0.0,30.27,WSW,248,0.0,0.0,0,0.00,,,0.00,WUHU216HW,2013-11-01 15:30:00,
2013-11-01 08:35:00,50.8,0.0,30.27,WSW,248,0.0,0.0,0,0.00,,,0.00,WUHU216HW,2013-11-01 15:35:00,
2013-11-01 08:40:00,50.8,0.0,30.26,WSW,248,0.0,0.0,0,0.00,,,0.00,WUHU216HW,2013-11-01 15:40:00,
2013-11-01 08:45:00,50.9,0.0,30.26,WSW,248,0.0,0.2,0,0.00,,,0.00,WUHU216HW,2013-11-01 15:45:00,
2013-11-01 08:50:00,50.9,0.0,30.25,WSW,248,0.4,0.4,0,0.00,,,0.00,WUHU216HW,2013-11-01 15:50:00,
2013-11-01 08:55:00,50.9,0.0,30.25,South,180,0.0,0.9,0,0.00,,,0.00,WUHU216HW,2013-11-01 15:55:00,
2013-11-01 09:00:00,51.1,0.0,30.25,SW,225,0.9,1.1,0,0.00,,,0.00,WUHU216HW,2013-11-01 16:00:00,
2013-11-01 09:05:00,51.3,0.0,30.25,WSW,248,0.2,1.1,0,0.00,,,0.00,WUHU216HW,2013-11-01 16:05:00,
2013-11-01 09:10:00,51.3,0.0,30.26,WSW,248,2.2,2.2,0,0.00,,,0.00,WUHU216HW,2013-11-01 16:10:00,
2013-11-01 09:15:00,51.5,0.0,30.26,SW,225,0.0,2.2,0,0.00,,,0.00,WUHU216HW,2013-11-01 16:15:00,
2013-11-01 09:20:00,51.5,0.0,30.26,SW,225,0.0,2.2,0,0.00,,,0.00,WUHU216HW,2013-11-01 16:20:00,
2013-11-01 09:25:00,51.5,0.0,30.26,SW,225,0.0,0.9,0,0.00,,,0.00,WUHU216HW,2013-11-01 16:25:00,
2013-11-01 09:30:00,51.5,0.0,30.25,SW,225,0.0,0.0,0,0.00,,,0.00,WUHU216HW,2013-11-01 16:30:00,
2013-11-01 09:35:00,51.7,0.0,30.25,ENE,68,0.9,1.8,0,0.00,,,0.00,WUHU216HW,2013-11-01 16:35:00,
2013-11-01 09:40:00,51.8,0.0,30.25,ENE,68,0.9,1.8,0,0.00,,,0.00,WUHU216HW,2013-11-01 16:40:00,
2013-11-01 09:45:00,51.8,0.0,30.26,NE,45,0.4,1.1,0,0.00,,,0.00,WUHU216HW,2013-11-01 16:45:00,
2013-11-01 09:50:00,51.8,0.0,30.26,SE,135,0.7,1.3,0,0.00,,,0.00,WUHU216HW,2013-11-01 16:50:00,
2013-11-01 09:55:00,51.8,0.0,30.26,SSE,158,0.0,1.3,0,0.00,,,0.00,WUHU216HW,2013-11-01 16:55:00,
2013-11-01 10:00:00,52.2,0.0,30.26,SSE,158,0.4,0.7,0,0.00,,,0.00,WUHU216HW,2013-11-01 17:00:00,
2013-11-01 10:05:00,52.2,0.0,30.25,SSE,158,0.0,0.7,0,0.00,,,0.00,WUHU216HW,2013-11-01 17:05:00,
2013-11-01 10:10:00,52.4,0.0,30.25,SSE,158,0.0,0.4,0,0.00,,,0.00,WUHU216HW,2013-11-01 17:10:00,
2013-11-01 10:15:00,52.6,0.0,30.25,SSE,158,0.0,1.1,0,0.00,,,0.00,WUHU216HW,2013-11-01 17:15:00,
2013-11-01 10:20:00,52.6,0.0,30.25,SW,225,0.4,1.1,0,0.00,,,0.00,WUHU216HW,2013-11-01 17:20:00,
2013-11-01 10:25:00,52.9,0.0,30.24,South,180,0.2,0.9,0,0.00,,,0.00,WUHU216HW,2013-11-01 17:25:00,
2013-11-01 10:30:00,53.1,0.0,30.24,West,270,1.1,1.1,0,0.00,,,0.00,WUHU216HW,2013-11-01 17:30:00,
2013-11-01 10:35:00,53.3,0.0,30.24,SSE,158,1.1,1.1,0,0.00,,,0.00,WUHU216HW,2013-11-01 17:35:00,
2013-11-01 10:40:00,53.6,0.0,30.24,SSE,158,0.2,1.1,0,0.00,,,0.00,WUHU216HW,2013-11-01 17:40:00,
2013-11-01 10:45:00,53.8,0.0,30.24,SSE,158,1.1,1.1,0,0.00,,,0.00,WUHU216HW,2013-11-01 17:45:00,
2013-11-01 10:50:00,54.0,0.0,30.24,SW,225,0.7,1.1,0,0.00,,,0.00,WUHU216HW,2013-11-01 17:50:00,
2013-11-01 10:55:00,54.2,0.0,30.24,SSW,203,1.1,1.1,0,0.00,,,0.00,WUHU216HW,2013-11-01 17:55:00,
2013-11-01 11:00:00,54.4,0.0,30.24,ESE,113,0.4,1.1,0,0.00,,,0.00,WUHU216HW,2013-11-01 18:00:00,
2013-11-01 11:05:00,54.4,0.0,30.23,ENE,68,0.2,1.1,0,0.00,,,0.00,WUHU216HW,2013-11-01 18:05:00,
2013-11-01 11:10:00,54.5,0.0,30.23,NE,45,0.0,1.6,0,0.00,,,0.00,WUHU216HW,2013-11-01 18:10:00,
2013-11-01 11:15:00,54.7,0.0,30.23,NE,45,0.0,1.6,0,0.00,,,0.00,WUHU216HW,2013-11-01 18:15:00,
2013-11-01 11:20:00,54.7,0.0,30.23,NE,45,0.0,0.0,0,0.00,,,0.00,WUHU216HW,2013-11-01 18:20:00,
2013-11-01 11:25:00,54.9,0.0,30.23,SE,135,0.0,0.0,0,0.00,,,0.00,WUHU216HW,2013-11-01 18:25:00,
2013-11-01 11:30:00,55.1,0.0,30.23,ENE,68,0.0,0.0,0,0.00,,,0.00,WUHU216HW,2013-11-01 18:30:00,
2013-11-01 11:35:00,55.3,0.0,30.23,NE,45,0.0,0.4,0,0.00,,,0.00,WUHU216HW,2013-11-01 18:35:00,
2013-11-01 11:40:00,55.4,0.0,30.22,NNE,23,0.4,1.3,0,0.00,,,0.00,WUHU216HW,2013-11-01 18:40:00,
2013-11-01 11:45:00,55.6,0.0,30.22,ESE,113,0.0,1.3,0,0.00,,,0.00,WUHU216HW,2013-11-01 18:45:00,
2013-11-01 11:50:00,55.8,0.0,30.22,SW,225,0.4,2.5,0,0.00,,,0.00,WUHU216HW,2013-11-01 18:50:00,
2013-11-01 11:55:00,56.0,0.0,30.22,SSE,158,0.2,2.5,0,0.00,,,0.00,WUHU216HW,2013-11-01 18:55:00,
2013-11-01 12:00:00,56.2,0.0,30.21,East,90,0.0,0.4,0,0.00,,,0.00,WUHU216HW,2013-11-01 19:00:00,
2013-11-01 12:05:00,56.2,0.0,30.21,WNW,293,0.4,0.4,0,0.00,,,0.00,WUHU216HW,2013-11-01 19:05:00,
2013-11-01 12:09:00,56.5,0.0,30.21,ENE,68,1.8,1.8,0,0.00,,,0.00,WUHU216HW,2013-11-01 19:09:00,
2013-11-01 12:14:00,56.3,0.0,30.21,SW,225,1.1,1.8,0,0.00,,,0.00,WUHU216HW,2013-11-01 19:14:00,
2013-11-01 12:19:00,56.5,0.0,30.21,SW,225,1.1,1.8,0,0.00,,,0.00,WUHU216HW,2013-11-01 19:19:00,
2013-11-01 12:24:00,56.5,0.0,30.21,WSW,248,2.2,2.2,0,0.00,,,0.00,WUHU216HW,2013-11-01 19:24:00,
2013-11-01 12:29:00,56.7,0.0,30.21,WNW,293,0.2,2.2,0,0.00,,,0.00,WUHU216HW,2013-11-01 19:29:00,
2013-11-01 12:34:00,56.9,0.0,30.20,SSW,203,0.2,2.2,0,0.00,,,0.00,WUHU216HW,2013-11-01 19:34:00,
2013-11-01 12:39:00,56.7,0.0,30.20,SE,135,0.2,0.9,0,0.00,,,0.00,WUHU216HW,2013-11-01 19:39:00,
2013-11-01 12:44:00,57.1,0.0,30.19,West,270,0.9,0.9,0,0.00,,,0.00,WUHU216HW,2013-11-01 19:44:00,
2013-11-01 12:49:00,56.9,0.0,30.19,West,270,0.0,0.9,0,0.00,,,0.00,WUHU216HW,2013-11-01 19:49:00,
2013-11-01 12:54:00,56.9,0.0,30.19,WSW,248,0.4,1.8,0,0.00,,,0.00,WUHU216HW,2013-11-01 19:54:00,
2013-11-01 12:59:00,56.9,0.0,30.19,West,270,0.9,1.8,0,0.00,,,0.00,WUHU216HW,2013-11-01 19:59:00,
2013-11-01 13:04:00,56.9,0.0,30.19,NNW,338,0.0,0.9,0,0.00,,,0.00,WUHU216HW,2013-11-01 20:04:00,
2013-11-01 13:09:00,57.1,0.0,30.19,NE,45,0.7,0.9,0,0.00,,,0.00,WUHU216HW,2013-11-01 20:09:00,
2013-11-01 13:14:00,57.2,0.0,30.18,ESE,113,0.0,1.1,0,0.00,,,0.00,WUHU216HW,2013-11-01 20:14:00,
2013-11-01 13:19:00,57.1,0.0,30.18,WSW,248,0.9,1.1,0,0.00,,,0.00,WUHU216HW,2013-11-01 20:19:00,
2013-11-01 13:24:00,57.2,0.0,30.18,ESE,113,0.4,0.9,0,0.00,,,0.00,WUHU216HW,2013-11-01 20:24:00,
2013-11-01 13:29:00,57.2,0.0,30.18,West,270,0.2,1.1,0,0.00,,,0.00,WUHU216HW,2013-11-01 20:29:00,
2013-11-01 13:34:00,57.2,0.0,30.18,West,270,0.0,1.1,0,0.00,,,0.00,WUHU216HW,2013-11-01 20:34:00,
2013-11-01 13:39:00,57.2,0.0,30.18,ENE,68,0.2,0.4,0,0.00,,,0.00,WUHU216HW,2013-11-01 20:39:00,
2013-11-01 13:44:00,57.2,0.0,30.17,NNW,338,0.4,0.9,0,0.00,,,0.00,WUHU216HW,2013-11-01 20:44:00,
2013-11-01 13:49:00,57.2,0.0,30.17,SSW,203,0.4,0.9,0,0.00,,,0.00,WUHU216HW,2013-11-01 20:49:00,
2013-11-01 13:54:00,57.2,0.0,30.17,WSW,248,0.2,0.9,0,0.00,,,0.00,WUHU216HW,2013-11-01 20:54:00,
2013-11-01 13:59:00,57.2,0.0,30.16,North,0,0.7,1.1,0,0.00,,,0.00,WUHU216HW,2013-11-01 20:59:00,
2013-11-01 14:04:00,57.2,0.0,30.16,West,270,2.0,2.0,0,0.00,,,0.00,WUHU216HW,2013-11-01 21:04:00,
2013-11-01 14:09:00,57.4,0.0,30.16,SW,225,1.1,2.0,0,0.00,,,0.00,WUHU216HW,2013-11-01 21:09:00,
2013-11-01 14:14:00,57.4,0.0,30.16,NNW,338,0.4,2.0,0,0.00,,,0.00,WUHU216HW,2013-11-01 21:14:00,
2013-11-01 14:19:00,57.4,0.0,30.16,South,180,0.0,1.1,0,0.00,,,0.00,WUHU216HW,2013-11-01 21:19:00,
2013-11-01 14:24:00,57.4,0.0,30.15,SW,225,0.2,0.7,0,0.00,,,0.00,WUHU216HW,2013-11-01 21:24:00,
2013-11-01 14:29:00,57.6,0.0,30.15,NW,315,0.0,0.2,0,0.00,,,0.00,WUHU216HW,2013-11-01 21:29:00,
2013-11-01 14:34:00,57.6,0.0,30.15,NW,315,0.0,0.4,0,0.00,,,0.00,WUHU216HW,2013-11-01 21:34:00,
2013-11-01 14:39:00,57.6,0.0,30.14,ENE,68,0.9,1.6,0,0.00,,,0.00,WUHU216HW,2013-11-01 21:39:00,
2013-11-01 14:44:00,57.4,0.0,30.14,NNE,23,1.6,3.4,0,0.00,,,0.00,WUHU216HW,2013-11-01 21:44:00,
2013-11-01 14:49:00,57.6,0.0,30.14,North,0,1.8,3.4,0,0.00,,,0.00,WUHU216HW,2013-11-01 21:49:00,
2013-11-01 14:54:00,57.6,0.0,30.14,NNE,23,1.3,2.5,0,0.00,,,0.00,WUHU216HW,2013-11-01 21:54:00,
2013-11-01 14:59:00,57.6,0.0,30.14,NE,45,1.6,1.8,0,0.00,,,0.00,WUHU216HW,2013-11-01 21:59:00,
2013-11-01 15:04:00,57.6,0.0,30.13,NNW,338,0.4,1.6,0,0.00,,,0.00,WUHU216HW,2013-11-01 22:04:00,
2013-11-01 15:09:00,57.4,0.0,30.13,North,0,0.4,1.1,0,0.00,,,0.00,WUHU216HW,2013-11-01 22:09:00,
2013-11-01 15:14:00,57.4,0.0,30.13,North,0,0.4,1.1,0,0.00,,,0.00,WUHU216HW,2013-11-01 22:14:00,
2013-11-01 15:19:00,57.4,0.0,30.12,ENE,68,0.4,0.4,0,0.00,,,0.00,WUHU216HW,2013-11-01 22:19:00,
2013-11-01 15:24:00,57.6,0.0,30.12,ENE,68,0.7,1.8,0,0.00,,,0.00,WUHU216HW,2013-11-01 22:24:00,
2013-11-01 15:29:00,57.6,0.0,30.11,East,90,1.1,1.8,0,0.00,,,0.00,WUHU216HW,2013-11-01 22:29:00,
2013-11-01 15:34:00,57.6,0.0,30.11,NNE,23,0.4,2.5,0,0.00,,,0.00,WUHU216HW,2013-11-01 22:34:00,
2013-11-01 15:39:00,57.6,0.0,30.11,North,0,1.1,2.9,0,0.00,,,0.00,WUHU216HW,2013-11-01 22:39:00,
2013-11-01 15:44:00,57.4,0.0,30.11,NNE,23,0.4,2.9,0,0.00,,,0.00,WUHU216HW,2013-11-01 22:44:00,
2013-11-01 15:49:00,57.6,0.0,30.11,NNW,338,0.7,1.3,0,0.00,,,0.00,WUHU216HW,2013-11-01 22:49:00,
2013-11-01 15:54:00,57.6,0.0,30.11,NNE,23,0.0,0.9,0,0.00,,,0.00,WUHU216HW,2013-11-01 22:54:00,
2013-11-01 15:59:00,57.8,0.0,30.11,South,180,0.2,1.1,0,0.00,,,0.00,WUHU216HW,2013-11-01 22:59:00,
2013-11-01 16:04:00,58.0,0.0,30.10,South,180,0.2,1.1,0,0.00,,,0.00,WUHU216HW,2013-11-01 23:04:00,
2013-11-01 16:09:00,58.0,0.0,30.10,SE,135,0.7,0.7,0,0.00,,,0.00,WUHU216HW,2013-11-01 23:09:00,
2013-11-01 16:14:00,58.0,0.0,30.10,SE,135,0.4,0.7,0,0.00,,,0.00,WUHU216HW,2013-11-01 23:14:00,
2013-11-01 16:19:00,58.0,0.0,30.10,SE,135,0.0,0.7,0,0.00,,,0.00,WUHU216HW,2013-11-01 23:19:00,
2013-11-01 16:24:00,58.0,0.0,30.09,SE,135,0.0,0.4,0,0.00,,,0.00,WUHU216HW,2013-11-01 23:24:00,
2013-11-01 16:29:00,58.0,0.0,30.09,SSE,158,0.4,0.4,0,0.00,,,0.00,WUHU216HW,2013-11-01 23:29:00,
2013-11-01 16:34:00,58.0,0.0,30.09,SE,135,0.0,0.4,0,0.00,,,0.00,WUHU216HW,2013-11-01 23:34:00,
2013-11-01 16:39:00,57.8,0.0,30.09,SE,135,0.0,0.4,0,0.00,,,0.00,WUHU216HW,2013-11-01 23:39:00,
2013-11-01 16:44:00,57.6,0.0,30.08,SE,135,0.0,0.0,0,0.00,,,0.00,WUHU216HW,2013-11-01 23:44:00,
2013-11-01 16:49:00,57.4,0.0,30.08,SE,135,0.0,0.0,0,0.00,,,0.00,WUHU216HW,2013-11-01 23:49:00,
2013-11-01 16:54:00,57.2,0.0,30.08,SE,135,0.0,0.0,0,0.00,,,0.00,WUHU216HW,2013-11-01 23:54:00,
2013-11-01 16:59:00,57.2,0.0,30.07,SE,135,0.0,0.0,0,0.00,,,0.00,WUHU216HW,2013-11-01 23:59:00,
2013-11-01 17:04:00,57.1,0.0,30.07,SE,135,0.0,0.0,0,0.00,,,0.00,WUHU216HW,2013-11-02 00:04:00,
2013-11-01 17:09:00,56.9,0.0,30.07,SE,135,0.0,0.0,0,0.00,,,0.00,WUHU216HW,2013-11-02 00:09:00,
2013-11-01 17:14:00,56.9,0.0,30.07,SE,135,0.0,0.0,0,0.00,,,0.00,WUHU216HW,2013-11-02 00:14:00,
2013-11-01 17:19:00,56.7,0.0,30.07,SE,135,0.0,0.0,0,0.00,,,0.00,WUHU216HW,2013-11-02 00:19:00,
2013-11-01 17:24:00,56.5,0.0,30.06,SE,135,0.0,0.2,0,0.00,,,0.00,WUHU216HW,2013-11-02 00:24:00,
2013-11-01 17:29:00,56.5,0.0,30.06,SE,135,0.4,0.4,0,0.00,,,0.00,WUHU216HW,2013-11-02 00:29:00,
2013-11-01 17:34:00,56.3,0.0,30.05,SW,225,0.4,0.9,0,0.00,,,0.00,WUHU216HW,2013-11-02 00:34:00,
2013-11-01 17:39:00,56.2,0.0,30.05,SW,225,0.0,0.9,0,0.00,,,0.00,WUHU216HW,2013-11-02 00:39:00,
2013-11-01 17:44:00,55.8,0.0,30.05,SW,225,1.1,1.1,0,0.00,,,0.00,WUHU216HW,2013-11-02 00:44:00,
2013-11-01 17:49:00,55.8,0.0,30.04,SW,225,1.3,1.6,0,0.00,,,0.00,WUHU216HW,2013-11-02 00:49:00,
2013-11-01 17:54:00,55.4,0.0,30.04,WSW,248,1.3,1.8,0,0.00,,,0.00,WUHU216HW,2013-11-02 00:54:00,
2013-11-01 17:59:00,55.3,0.0,30.03,SW,225,1.8,2.2,0,0.00,,,0.00,WUHU216HW,2013-11-02 00:59:00,
2013-11-01 18:04:00,54.9,0.0,30.03,WSW,248,2.0,3.1,0,0.00,,,0.00,WUHU216HW,2013-11-02 01:04:00,
2013-11-01 18:09:00,54.7,0.0,30.03,SW,225,2.5,3.1,0,0.00,,,0.00,WUHU216HW,2013-11-02 01:09:00,
2013-11-01 18:14:00,54.5,0.0,30.03,SW,225,2.7,3.1,0,0.00,,,0.00,WUHU216HW,2013-11-02 01:14:00,
2013-11-01 18:19:00,54.4,0.0,30.03,SW,225,2.5,3.1,0,0.00,,,0.00,WUHU216HW,2013-11-02 01:19:00,
2013-11-01 18:24:00,54.0,0.0,30.02,SW,225,2.0,3.1,0,0.00,,,0.00,WUHU216HW,2013-11-02 01:24:00,
2013-11-01 18:29:00,53.6,0.0,30.02,SW,225,2.0,2.5,0,0.00,,,0.00,WUHU216HW,2013-11-02 01:29:00,
2013-11-01 18:34:00,53.6,0.0,30.01,SW,225,1.1,2.5,0,0.00,,,0.00,WUHU216HW,2013-11-02 01:34:00,
2013-11-01 18:39:00,53.5,0.0,30.01,SW,225,0.4,2.0,0,0.00,,,0.00,WUHU216HW,2013-11-02 01:39:00,
2013-11-01 18:44:00,53.3,0.0,30.01,SW,225,0.0,1.3,0,0.00,,,0.00,WUHU216HW,2013-11-02 01:44:00,
2013-11-01 18:49:00,53.1,0.0,30.01,SW,225,1.3,1.3,0,0.00,,,0.00,WUHU216HW,2013-11-02 01:49:00,
2013-11-01 18:54:00,53.1,0.0,30.00,SW,225,2.0,2.2,0,0.00,,,0.00,WUHU216HW,2013-11-02 01:54:00,
2013-11-01 18:59:00,52.9,0.0,30.00,SW,225,2.5,2.5,0,0.00,,,0.00,WUHU216HW,2013-11-02 01:59:00,
2013-11-01 19:04:00,52.9,0.0,30.00,WSW,248,2.5,3.1,0,0.00,,,0.00,WUHU216HW,2013-11-02 02:04:00,
2013-11-01 19:09:00,52.7,0.0,30.00,WSW,248,2.2,3.1,0,0.00,,,0.00,WUHU216HW,2013-11-02 02:09:00,
2013-11-01 19:14:00,52.7,0.0,29.99,SW,225,1.8,2.9,0,0.00,,,0.00,WUHU216HW,2013-11-02 02:14:00,
2013-11-01 19:19:00,52.6,0.0,29.99,WSW,248,1.1,2.5,0,0.00,,,0.00,WUHU216HW,2013-11-02 02:19:00,
2013-11-01 19:24:00,52.6,0.0,29.98,SW,225,1.3,2.5,0,0.00,,,0.00,WUHU216HW,2013-11-02 02:24:00,
2013-11-01 19:29:00,52.4,0.0,29.98,SW,225,0.4,2.0,0,0.00,,,0.00,WUHU216HW,2013-11-02 02:29:00,
2013-11-01 19:34:00,52.4,0.0,29.97,SW,225,0.4,1.6,0,0.00,,,0.00,WUHU216HW,2013-11-02 02:34:00,
2013-11-01 19:39:00,52.4,0.0,29.97,SW,225,0.9,0.9,0,0.00,,,0.00,WUHU216HW,2013-11-02 02:39:00,
2013-11-01 19:44:00,52.2,0.0,29.97,SW,225,1.1,1.6,0,0.00,,,0.00,WUHU216HW,2013-11-02 02:44:00,
2013-11-01 19:49:00,52.2,0.0,29.97,SW,225,2.0,2.0,0,0.00,,,0.00,WUHU216HW,2013-11-02 02:49:00,
2013-11-01 19:54:00,52.0,0.0,29.96,SW,225,1.8,2.2,0,0.00,,,0.00,WUHU216HW,2013-11-02 02:54:00,
2013-11-01 19:59:00,51.8,0.0,29.96,WSW,248,1.8,2.7,0,0.00,,,0.00,WUHU216HW,2013-11-02 02:59:00,
2013-11-01 20:04:00,51.8,0.0,29.96,WSW,248,1.8,2.7,0,0.00,,,0.00,WUHU216HW,2013-11-02 03:04:00,
2013-11-01 20:09:00,51.8,0.0,29.95,WSW,248,1.1,2.5,0,0.00,,,0.00,WUHU216HW,2013-11-02 03:09:00,
2013-11-01 20:14:00,51.8,0.0,29.95,SW,225,0.4,2.0,0,0.00,,,0.00,WUHU216HW,2013-11-02 03:14:00,
2013-11-01 20:19:00,51.8,0.0,29.94,SW,225,1.3,1.3,0,0.00,,,0.00,WUHU216HW,2013-11-02 03:19:00,
2013-11-01 20:24:00,51.8,0.0,29.94,SW,225,1.3,2.2,0,0.00,,,0.00,WUHU216HW,2013-11-02 03:24:00,
2013-11-01 20:29:00,51.8,0.0,29.94,SW,225,1.8,2.7,0,0.00,,,0.00,WUHU216HW,2013-11-02 03:29:00,
2013-11-01 20:34:00,51.8,0.0,29.94,WSW,248,1.8,2.7,0,0.00,,,0.00,WUHU216HW,2013-11-02 03:34:00,
2013-11-01 20:39:00,51.8,0.0,29.93,WSW,248,1.6,2.5,0,0.00,,,0.00,WUHU216HW,2013-11-02 03:39:00,
2013-11-01 20:44:00,51.8,0.0,29.93,SW,225,1.1,1.8,0,0.00,,,0.00,WUHU216HW,2013-11-02 03:44:00,
2013-11-01 20:49:00,51.8,0.0,29.93,SW,225,0.4,1.8,0,0.00,,,0.00,WUHU216HW,2013-11-02 03:49:00,
2013-11-01 20:54:00,51.8,0.0,29.93,SW,225,0.0,1.3,0,0.00,,,0.00,WUHU216HW,2013-11-02 03:54:00,
2013-11-01 20:59:00,51.8,0.0,29.92,SW,225,0.4,0.4,0,0.00,,,0.00,WUHU216HW,2013-11-02 03:59:00,
2013-11-01 21:01:00,51.8,0.0,29.92,SW,225,0.4,0.9,0,0.00,,,0.00,WUHU216HW,2013-11-02 04:01:00,
2013-11-01 21:02:00,51.8,0.0,29.92,SW,225,0.4,0.9,0,0.00,,,0.00,WUHU216HW,2013-11-02 04:02:00,
2013-11-01 21:07:00,51.8,0.0,29.92,SW,225,1.3,1.3,0,0.00,,,0.00,WUHU216HW,2013-11-02 04:07:00,
2013-11-01 21:12:00,51.8,0.0,29.92,WSW,248,1.1,2.0,0,0.00,,,0.00,WUHU216HW,2013-11-02 04:12:00,
2013-11-01 21:17:00,51.8,0.0,29.92,SW,225,1.8,2.5,0,0.00,,,0.00,WUHU216HW,2013-11-02 04:17:00,
2013-11-01 21:22:00,51.8,0.0,29.92,WSW,248,1.8,2.9,0,0.00,,,0.00,WUHU216HW,2013-11-02 04:22:00,
2013-11-01 21:27:00,51.7,0.0,29.91,WSW,248,1.1,2.9,0,0.00,,,0.00,WUHU216HW,2013-11-02 04:27:00,
2013-11-01 21:32:00,51.8,0.0,29.91,WSW,248,2.0,2.7,0,0.00,,,0.00,WUHU216HW,2013-11-02 04:32:00,
2013-11-01 21:37:00,51.7,0.0,29.90,WSW,248,1.8,2.7,0,0.00,,,0.00,WUHU216HW,2013-11-02 04:37:00,
2013-11-01 21:42:00,51.8,0.0,29.90,SW,225,0.7,2.5,0,0.00,,,0.00,WUHU216HW,2013-11-02 04:42:00,
2013-11-01 21:47:00,51.8,0.0,29.90,SW,225,1.3,2.2,0,0.00,,,0.00,WUHU216HW,2013-11-02 04:47:00,
2013-11-01 21:52:00,51.8,0.0,29.90,WSW,248,1.1,2.0,0,0.00,,,0.00,WUHU216HW,2013-11-02 04:52:00,
2013-11-01 21:57:00,51.8,0.0,29.89,SW,225,1.3,2.0,0,0.00,,,0.00,WUHU216HW,2013-11-02 04:57:00,
2013-11-01 22:02:00,51.7,0.0,29.89,WSW,248,1.1,1.8,0,0.00,,,0.00,WUHU216HW,2013-11-02 05:02:00,
2013-11-01 22:07:00,51.7,0.0,29.90,WSW,248,0.0,1.3,0,0.00,,,0.00,WUHU216HW,2013-11-02 05:07:00,
2013-11-01 22:12:00,51.8,0.0,29.89,WSW,248,0.2,1.1,0,0.00,,,0.00,WUHU216HW,2013-11-02 05:12:00,
2013-11-01 22:17:00,51.8,0.0,29.89,WSW,248,0.4,0.9,0,0.00,,,0.00,WUHU216HW,2013-11-02 05:17:00,
2013-11-01 22:22:00,51.8,0.0,29.89,WSW,248,0.0,0.9,0,0.00,,,0.00,WUHU216HW,2013-11-02 05:22:00,
2013-11-01 22:27:00,51.8,0.0,29.89,WSW,248,0.0,0.7,0,0.00,,,0.00,WUHU216HW,2013-11-02 05:27:00,
2013-11-01 22:32:00,51.8,0.0,29.88,WSW,248,0.7,0.7,0,0.00,,,0.00,WUHU216HW,2013-11-02 05:32:00,
2013-11-01 22:37:00,51.8,0.0,29.88,WSW,248,0.9,0.9,0,0.00,,,0.00,WUHU216HW,2013-11-02 05:37:00,
2013-11-01 22:42:00,51.8,0.0,29.88,WSW,248,1.1,2.0,0,0.00,,,0.00,WUHU216HW,2013-11-02 05:42:00,
2013-11-01 22:47:00,51.8,0.0,29.88,WSW,248,0.9,2.0,0,0.00,,,0.00,WUHU216HW,2013-11-02 05:47:00,
2013-11-01 22:52:00,51.8,0.0,29.88,SW,225,0.7,1.3,0,0.00,,,0.00,WUHU216HW,2013-11-02 05:52:00,
2013-11-01 22:57:00,51.8,0.0,29.88,SW,225,1.6,1.8,0,0.00,,,0.00,WUHU216HW,2013-11-02 05:57:00,
2013-11-01 23:02:00,51.8,0.0,29.88,West,270,1.6,2.5,0,0.00,,,0.00,WUHU216HW,2013-11-02 06:02:00,
2013-11-01 23:07:00,51.8,0.0,29.88,WSW,248,0.4,2.5,0,0.00,,,0.00,WUHU216HW,2013-11-02 06:07:00,
2013-11-01 23:12:00,52.0,0.0,29.88,WSW,248,0.4,2.2,0,0.00,,,0.00,WUHU216HW,2013-11-02 06:12:00,
2013-11-01 23:17:00,52.0,0.0,29.87,SW,225,1.8,2.2,0,0.00,,,0.00,WUHU216HW,2013-11-02 06:17:00,
2013-11-01 23:22:00,52.0,0.0,29.87,SW,225,1.8,2.2,0,0.00,,,0.00,WUHU216HW,2013-11-02 06:22:00,
2013-11-01 23:27:00,52.0,0.0,29.87,SW,225,0.9,1.8,0,0.00,,,0.00,WUHU216HW,2013-11-02 06:27:00,
2013-11-01 23:32:00,52.0,0.0,29.87,SW,225,2.0,3.8,0,0.00,,,0.00,WUHU216HW,2013-11-02 06:32:00,
2013-11-01 23:37:00,52.0,0.0,29.87,SW,225,0.4,3.8,0,0.00,,,0.00,WUHU216HW,2013-11-02 06:37:00,
2013-11-01 23:42:00,52.0,0.0,29.87,SW,225,0.9,2.0,0,0.00,,,0.00,WUHU216HW,2013-11-02 06:42:00,
2013-11-01 23:47:00,52.0,0.0,29.87,SW,225,0.0,1.6,0,0.00,,,0.00,WUHU216HW,2013-11-02 06:47:00,
2013-11-01 23:52:00,52.0,0.0,29.87,SSW,203,0.2,1.6,0,0.00,,,0.00,WUHU216HW,2013-11-02 06:52:00,
2013-11-01 23:57:00,52.0,0.0,29.87,SW,225,2.2,2.2,0,0.01,,,0.01,WUHU216HW,2013-11-02 06:57:00,